English Español Galego
facebook twitter google
Descargar Fichero Excel Descargar Fichero CSV
Volver
Fecha Temperatura del Aire (ºC) Temperatura del Agua 1.5m (ºC) Velocidad del Viento (m/s) Dirección del Viento Turbidez (NTU) Velocidad de la Corriente (cm/s) Dirección de la Corriente Salinidad (psu) Conductividad (mS/cm) LDO (mg/l) Humedad Relativa del Aire (%) Clorofila a (Fluorescencia) (µg/l) pH PAR (µE/(m^2s))
19-02-21 09:00 - 12.7 - - - - - - - - - - - -
19-02-21 08:50 - 12.6 - - - - - - - - - - - -
19-02-21 08:40 - 12.6 - - - - - - - - - - - -
19-02-21 08:30 - 12.5 - - - - - - - - - - - -
19-02-21 08:20 - 12.5 - - - - - - - - - - - 1
19-02-21 08:10 - 12.7 - - - - - - - - - - - 2
19-02-21 08:00 - 12.6 - - - - - - - - - - - 3
19-02-21 07:50 10.8 12.6 0.1 37.0 - - - - - - 86.0 - - 2
19-02-21 07:40 10.7 12.6 0.2 178.8 - - - - - - 85.9 - - 4
19-02-21 07:30 10.7 12.5 0.3 163.0 - - - - - - 84.8 - - 5
19-02-21 07:20 10.8 12.5 0.3 127.3 - - - - - - 82.8 - - 5
19-02-21 07:10 11.1 12.5 0.5 86.8 - - - - - - 81.5 - - 3
19-02-21 07:00 11.0 12.5 1.1 83.4 - - - - - - 81.4 - - 4
19-02-21 06:50 11.0 12.5 1.3 77.6 - - - - - - 81.7 - - 3
19-02-21 06:40 11.0 12.5 1.5 88.1 - - - - - - 82.1 - - 5
19-02-21 06:30 11.1 12.5 1.6 84.9 - - - - - - 83.9 - - 4
19-02-21 06:20 11.2 -99999.0 1.6 61.8 - - - - - - 84.8 - - 5
19-02-21 06:10 10.9 12.4 2.2 57.7 - - - - - - 81.6 - - 3
19-02-21 06:00 10.9 12.4 2.4 70.9 - - - - - - 82.2 - - 3
19-02-21 05:50 11.0 12.5 2.2 80.5 - - - - - - 81.3 - - 6
19-02-21 05:40 11.0 12.5 1.1 81.7 - - - - - - 82.5 - - -13
19-02-21 05:30 11.1 12.5 0.8 83.4 - - - - - - 82.7 - - 4
19-02-21 05:20 10.9 12.5 1.3 81.1 - - - - - - 82.5 - - 4
19-02-21 05:10 10.9 12.4 2.0 89.2 - - - - - - 81.8 - - 8
19-02-21 05:00 10.9 12.4 2.1 98.6 - - - - - - 81.7 - - 2
19-02-21 04:50 11.1 12.4 2.7 95.4 - - - - - - 81.0 - - 4
19-02-21 04:40 11.1 12.4 2.2 109.2 - - - - - - 81.4 - - 4
19-02-21 04:30 11.1 12.4 1.8 85.8 - - - - - - 82.1 - - 2
19-02-21 04:20 11.1 12.5 1.4 86.5 - - - - - - 83.3 - - 1
19-02-21 04:10 11.0 12.5 1.3 72.8 - - - - - - 83.7 - - 7
19-02-21 04:00 10.8 12.5 1.6 75.3 - - - - - - 84.1 - - 5
19-02-21 03:50 10.8 12.5 2.7 90.6 - - - - - - 84.2 - - 4
19-02-21 03:40 11.0 - 2.7 84.0 - - - - - - 84.4 - - 1
19-02-21 03:30 11.1 12.5 2.4 85.6 - - - - - - 82.8 - - 1
19-02-21 03:20 11.1 - 2.3 97.2 - - - - - - 83.7 - - 2
19-02-21 03:10 11.1 12.5 1.8 117.6 - - - - - - 83.8 - - 4
19-02-21 03:00 11.1 12.5 1.8 99.7 - - - - - - 83.5 - - 4
19-02-21 02:50 11.0 12.5 1.1 75.0 - - - - - - 83.2 - - 1
19-02-21 02:40 10.9 12.5 1.0 75.4 - - - - - - 82.2 - - 1
19-02-21 02:30 10.9 12.5 1.5 60.1 - - - - - - 82.3 - - 1
19-02-21 02:20 10.9 12.5 2.0 84.9 - - - - - - 83.7 - - 3
19-02-21 02:10 10.9 12.5 2.7 95.6 - - - - - - 83.5 - - -1
19-02-21 02:00 10.7 12.5 1.5 115.5 - - - - - - 85.9 - - -1
19-02-21 01:50 10.6 12.5 1.0 137.5 - - - - - - 85.7 - - 2
19-02-21 01:40 10.7 12.5 0.5 135.4 - - - - - - 84.5 - - 3
19-02-21 01:30 10.7 12.5 0.6 124.3 - - - - - - 85.6 - - 5
19-02-21 01:20 10.5 12.5 0.2 162.0 - - - - - - 86.3 - - 6
19-02-21 01:10 10.6 12.5 0.2 86.7 - - - - - - 85.8 - - 2
19-02-21 01:00 10.5 12.5 0.9 79.5 - - - - - - 85.6 - - -2
19-02-21 00:50 10.6 12.5 2.0 82.0 - - - - - - 85.2 - - 5
19-02-21 00:40 10.6 12.5 2.7 86.0 - - - - - - 86.4 - - 3
19-02-21 00:30 10.7 12.6 1.9 95.4 - - - - - - 88.2 - - 4
19-02-21 00:20 10.6 12.6 1.7 91.6 - - - - - - 87.9 - - 1
19-02-21 00:10 10.3 12.6 1.2 108.8 - - - - - - 89.0 - - 6
19-02-21 00:00 10.1 12.6 0.8 131.2 - - - - - - 90.0 - - 1
19-02-20 23:50 10.4 12.6 0.6 141.0 - - - - - - 88.3 - - 2
19-02-20 23:40 10.8 12.6 0.8 83.2 - - - - - - 87.9 - - 8
19-02-20 23:30 10.7 12.6 0.7 71.4 - - - - - - 86.9 - - 5
19-02-20 23:20 10.7 12.6 1.1 85.7 - - - - - - 86.6 - - 4
19-02-20 23:10 11.0 12.6 1.3 90.9 - - - - - - 86.9 - - 4
19-02-20 23:00 11.1 12.6 1.4 79.3 - - - - - - 86.5 - - 2
19-02-20 22:50 11.2 12.6 1.8 87.6 - - - - - - 85.1 - - 6
19-02-20 22:40 11.2 12.7 1.8 75.8 - - - - - - 85.9 - - 6
19-02-20 22:30 11.0 12.7 2.2 84.0 - - - - - - 86.2 - - 8
19-02-20 22:20 11.0 12.7 2.7 99.4 - - - - - - 86.8 - - 3
19-02-20 22:10 11.0 12.7 1.5 120.1 - - - - - - 88.0 - - 4
19-02-20 22:00 10.7 12.8 1.5 140.4 - - - - - - 89.3 - - 6
19-02-20 21:50 10.6 12.8 1.8 149.9 - - - - - - 88.1 - - 1
19-02-20 21:40 10.7 12.8 1.6 158.7 - - - - - - 86.3 - - 4
19-02-20 21:30 11.1 12.8 1.4 171.4 - - - - - - 84.5 - - 2
19-02-20 21:20 11.4 12.8 1.1 179.5 - - - - - - 84.9 - - 8
19-02-20 21:10 11.5 12.8 0.2 222.7 - - - - - - 84.4 - - 7
19-02-20 21:00 11.5 12.8 0.8 127.7 - - - - - - 82.8 - - 4
19-02-20 20:50 12.4 12.8 1.3 167.6 - - - - - - 80.0 - - -6
19-02-20 20:40 12.6 12.8 1.6 187.5 - - - - - - 79.4 - - 6
19-02-20 20:30 12.6 12.8 1.4 192.7 - - - - - - 80.1 - - 9
19-02-20 20:20 12.6 12.8 1.3 187.3 - - - - - - 80.7 - - 6
19-02-20 20:10 12.6 12.8 0.9 202.3 - - - - - - 80.4 - - 6
19-02-20 20:00 12.7 12.8 0.6 199.7 - - - - - - 80.0 - - 7
19-02-20 19:50 12.8 12.9 0.7 212.9 - - - - - - 77.9 - - 6
19-02-20 19:40 12.8 12.9 0.7 306.4 - - - - - - 78.4 - - 10
19-02-20 19:30 12.9 12.9 0.5 39.0 - - - - - - 76.6 - - 7
19-02-20 19:20 12.8 12.9 0.7 182.2 - - - - - - 75.9 - - 8
19-02-20 19:10 12.8 13.0 0.8 222.9 - - - - - - 76.2 - - 12
19-02-20 19:00 12.7 13.0 1.0 212.2 - - - - - - 75.2 - - 12
19-02-20 18:50 12.7 13.0 1.2 226.3 - - - - - - 75.5 - - 16
19-02-20 18:40 12.6 13.0 1.2 222.7 - - - - - - 75.9 - - 16
19-02-20 18:30 12.7 13.0 1.1 217.5 - - - - - - 74.8 - - 13
19-02-20 18:20 12.7 13.0 1.5 218.6 - - - - - - 74.0 - - 15
19-02-20 18:10 12.8 13.0 1.8 210.3 - - - - - - 72.8 - - 12
19-02-20 18:00 13.1 13.0 1.1 209.0 - - - - - - 72.1 - - 18
19-02-20 17:50 13.0 13.0 1.2 205.4 - - - - - - 71.2 - - 14
19-02-20 17:40 13.0 13.0 1.3 195.4 - - - - - - 70.6 - - 10
19-02-20 17:30 13.1 13.0 1.6 201.0 - - - - - - 69.7 - - 6
19-02-20 17:20 12.9 13.0 1.8 203.9 - - - - - - 69.5 - - 13
19-02-20 17:10 13.1 13.0 2.0 193.2 - - - - - - 69.5 - - 19
19-02-20 17:00 13.2 13.0 1.6 210.5 - - - - - - 69.5 - - 18
19-02-20 16:50 12.8 13.0 2.7 214.1 - - - - - - 69.9 - - 13
19-02-20 16:40 12.7 13.1 3.1 207.6 - - - - - - 69.6 - - 20
19-02-20 16:30 12.8 13.1 2.7 206.3 - - - - - - 68.9 - - 16
19-02-20 16:20 13.0 13.1 2.5 209.0 - - - - - - 68.7 - - 15
19-02-20 16:10 13.1 13.0 2.1 207.4 - - - - - - 68.4 - - 18
19-02-20 16:00 12.9 13.0 2.6 208.1 - - - - - - 66.9 - - 15
19-02-20 15:50 13.0 13.0 2.7 208.7 - - - - - - 66.8 - - 19
19-02-20 15:40 12.9 13.0 2.2 203.8 - - - - - - 67.5 - - 17
19-02-20 15:30 12.8 - 2.2 204.4 - - - - - - 67.2 - - 20
19-02-20 15:20 12.7 13.0 2.0 203.8 - - - - - - 66.8 - - 18
19-02-20 15:00 12.8 12.9 2.3 206.0 - - - - - - 66.4 - - 15
19-02-20 14:50 12.8 12.7 2.3 207.8 - - - - - - 65.7 - - 16
19-02-20 14:40 12.8 12.8 2.3 206.4 - - - - - - 65.8 - - 16
19-02-20 14:30 12.9 12.7 2.4 206.2 - - - - - - 65.9 - - 21
19-02-20 14:20 13.0 12.8 2.5 203.9 - - - - - - 65.0 - - 22
19-02-20 14:10 13.2 12.7 2.1 198.5 - - - - - - 64.9 - - 14
19-02-20 14:00 13.2 12.7 1.7 204.2 - - - - - - 62.8 - - 20
19-02-20 13:50 13.4 12.7 1.8 186.3 - - - - - - 52.1 - - 15
19-02-20 13:40 13.3 12.7 2.5 179.6 - - - - - - 49.5 - - 14
19-02-20 13:30 13.2 12.6 2.3 195.5 - - - - - - 49.6 - - 16
19-02-20 13:20 13.1 12.5 3.2 184.6 - - - - - - 50.1 - - 15
19-02-20 13:10 12.9 12.5 2.8 189.8 - - - - - - 55.2 - - 17
19-02-20 13:00 13.0 12.4 4.0 180.8 - - - - - - 53.9 - - 13
19-02-20 12:50 12.8 12.4 3.4 190.5 - - - - - - 55.7 - - 17
19-02-20 12:40 12.7 12.3 4.0 184.5 - - - - - - 56.1 - - 15
19-02-20 12:30 12.5 12.4 4.7 189.5 - - - - - - 53.6 - - 16
19-02-20 12:20 12.5 12.3 4.3 192.0 - - - - - - 52.9 - - 16
19-02-20 12:10 12.4 12.3 4.2 188.3 - - - - - - 52.9 - - 14
19-02-20 12:00 12.2 12.2 4.2 187.9 - - - - - - 54.2 - - 15
19-02-20 11:50 12.0 12.2 4.4 185.6 - - - - - - 56.4 - - 12
19-02-20 11:40 11.9 12.2 4.7 182.1 - - - - - - 59.3 - - 10
19-02-20 11:30 11.8 12.3 4.0 179.4 - - - - - - 61.9 - - 5
19-02-20 11:20 11.6 12.3 3.5 174.9 - - - - - - 64.7 - - 11
19-02-20 11:10 11.6 12.2 3.5 175.3 - - - - - - 65.1 - - 7
19-02-20 11:00 11.6 12.1 3.6 179.7 - - - - - - 65.0 - - 8
19-02-20 10:50 11.6 12.1 3.1 181.3 - - - - - - 65.1 - - 12
19-02-20 10:40 11.4 12.2 2.9 182.1 - - - - - - 66.1 - - 7
19-02-20 10:30 11.0 12.4 0.8 146.4 - - - - - - 69.2 - - 9
19-02-20 10:20 10.4 12.4 0.8 50.7 - - - - - - 70.9 - - 6
19-02-20 10:10 10.3 12.4 1.5 66.8 - - - - - - 71.8 - - 2
19-02-20 10:00 10.2 12.4 0.7 82.1 - - - - - - 70.6 - - 3
19-02-20 09:50 10.0 12.4 1.1 66.1 - - - - - - 71.7 - - 3
19-02-20 09:40 9.9 12.4 1.7 66.5 - - - - - - 72.1 - - 2
19-02-20 09:30 9.7 12.4 2.1 57.5 - - - - - - 72.7 - - 6
19-02-20 09:20 9.6 12.4 2.2 51.5 - - - - - - 74.3 - - 5
19-02-20 09:10 9.5 12.4 1.7 59.5 - - - - - - 74.4 - - 3
19-02-20 09:00 9.1 12.4 2.5 56.9 - - - - - - 77.1 - - 7
19-02-20 08:50 9.1 12.4 3.0 52.1 - - - - - - 78.1 - - 10
19-02-20 08:40 9.1 12.4 2.9 56.5 - - - - - - 77.5 - - 7
19-02-20 08:30 9.0 12.4 2.9 52.2 - - - - - - 77.4 - - 8
19-02-20 08:20 8.9 12.4 3.4 49.0 - - - - - - 76.9 - - 6
19-02-20 08:10 9.0 12.4 2.7 46.6 - - - - - - 75.8 - - 7
19-02-20 08:00 8.9 12.4 1.7 40.5 - - - - - - 76.7 - - 2
19-02-20 07:50 8.7 12.5 2.2 42.3 - - - - - - 77.8 - - 9
19-02-20 07:40 8.6 12.6 2.2 47.3 - - - - - - 78.7 - - -3
19-02-20 07:30 8.6 12.6 2.0 67.1 - - - - - - 77.8 - - 6
19-02-20 07:20 8.7 12.6 2.8 63.4 - - - - - - 77.9 - - 3
19-02-20 07:10 8.7 12.6 3.0 60.1 - - - - - - 78.1 - - 4
19-02-20 07:00 8.6 12.6 2.7 65.2 - - - - - - 78.8 - - 8
19-02-20 06:50 8.5 12.6 3.1 71.7 - - - - - - 79.0 - - 3
19-02-20 06:40 8.4 12.7 3.2 75.7 - - - - - - 78.6 - - 3
19-02-20 06:30 8.3 12.7 2.6 75.3 - - - - - - 81.7 - - 11
19-02-20 06:20 8.3 12.6 2.2 78.4 - - - - - - 81.5 - - 4
19-02-20 06:10 8.1 12.7 2.3 80.6 - - - - - - 81.2 - - 4
19-02-20 06:00 8.0 12.6 1.4 104.3 - - - - - - 81.2 - - 4
19-02-20 05:50 8.5 12.6 1.5 110.5 - - - - - - 79.5 - - 4
19-02-20 05:40 8.8 12.6 2.0 81.6 - - - - - - 78.1 - - 8
19-02-20 05:30 8.6 12.6 1.8 78.1 - - - - - - 75.8 - - 13
19-02-20 05:20 8.7 12.6 1.9 69.1 - - - - - - 76.9 - - 8
19-02-20 05:10 8.3 12.6 2.0 70.3 - - - - - - 77.0 - - 6
19-02-20 05:00 8.1 12.6 2.3 64.7 - - - - - - 81.6 - - 12
19-02-20 04:50 7.5 12.6 0.7 114.4 - - - - - - 85.0 - - 5
19-02-20 04:40 7.6 12.6 0.4 111.1 - - - - - - 84.2 - - 8
19-02-20 04:30 7.9 12.6 0.9 114.7 - - - - - - 82.9 - - 8
19-02-20 04:20 8.1 12.6 1.9 88.4 - - - - - - 78.8 - - 7
19-02-20 04:10 8.2 12.6 2.4 78.8 - - - - - - 77.9 - - 4
19-02-20 04:00 8.2 12.6 1.9 76.7 - - - - - - 77.7 - - 4
19-02-20 03:50 8.1 12.6 2.0 71.5 - - - - - - 81.5 - - 1
19-02-20 03:40 7.7 12.6 1.8 70.5 - - - - - - 84.3 - - 7
19-02-20 03:30 7.7 12.6 1.8 67.7 - - - - - - 84.6 - - 8
19-02-20 03:20 7.3 - 1.6 73.4 - - - - - - 86.6 - - 5
19-02-20 03:10 7.0 12.6 0.5 96.2 - - - - - - 88.3 - - 13
19-02-20 03:00 7.1 -99999.0 - - - - - - - - 88.0 - - 10
19-02-20 02:50 7.2 12.6 0.4 134.8 - - - - - - 86.2 - - 6
19-02-20 02:40 7.1 12.6 0.5 106.0 - - - - - - 86.0 - - 8
19-02-20 02:30 6.9 12.6 0.8 137.6 - - - - - - 85.7 - - 6
19-02-20 02:20 6.8 12.6 1.0 145.9 - - - - - - 85.4 - - 6
19-02-20 02:10 6.9 12.6 0.7 148.5 - - - - - - 85.9 - - 9
19-02-20 02:00 6.9 12.6 1.0 147.0 - - - - - - 86.4 - - 5
19-02-20 01:50 7.0 12.7 0.5 154.5 - - - - - - 87.1 - - 4
19-02-20 01:40 6.9 12.7 0.6 142.1 - - - - - - 86.1 - - 5
19-02-20 01:30 6.9 12.6 0.8 153.7 - - - - - - 85.6 - - 8
19-02-20 01:20 7.1 12.6 0.8 154.7 - - - - - - 85.9 - - 5
19-02-20 01:10 7.3 12.6 0.8 144.5 - - - - - - 84.3 - - 5
19-02-20 01:00 7.8 12.5 0.9 140.5 - - - - - - 83.1 - - 8
19-02-20 00:50 7.8 12.5 1.1 120.3 - - - - - - 82.4 - - 6
19-02-20 00:40 7.9 12.5 1.1 124.9 - - - - - - 80.6 - - 6
19-02-20 00:30 7.8 12.5 1.3 101.9 - - - - - - 80.6 - - 8
19-02-20 00:20 7.8 12.6 1.6 90.5 - - - - - - 81.1 - - 5
19-02-20 00:10 7.9 12.6 1.1 105.8 - - - - - - 81.4 - - 2
19-02-20 00:00 7.8 12.6 1.4 84.0 - - - - - - 80.0 - - 1
19-02-19 23:50 7.7 12.6 2.0 80.9 - - - - - - 80.3 - - -1
19-02-19 23:40 7.6 12.6 1.1 103.9 - - - - - - 82.6 - - 4
19-02-19 23:30 7.4 12.6 0.8 151.4 - - - - - - 82.4 - - 4
19-02-19 23:20 7.6 12.6 0.4 156.3 - - - - - - 81.8 - - 3
19-02-19 23:10 7.7 12.6 0.9 152.3 - - - - - - 81.8 - - 6
19-02-19 23:00 7.7 12.6 1.1 137.7 - - - - - - 82.0 - - 7
19-02-19 22:50 7.5 12.6 0.7 143.7 - - - - - - 81.6 - - 4
19-02-19 22:40 7.6 12.6 1.1 154.2 - - - - - - 81.0 - - 5
19-02-19 22:30 7.7 12.6 1.1 154.5 - - - - - - 81.7 - - 6
19-02-19 22:20 7.4 12.6 1.2 158.6 - - - - - - 81.1 - - 8
19-02-19 22:10 7.6 12.6 1.3 159.5 - - - - - - 80.7 - - 5
19-02-19 22:00 7.6 12.5 1.4 157.1 - - - - - - 80.5 - - 9
19-02-19 21:50 7.7 12.6 1.1 163.8 - - - - - - 80.7 - - 4
19-02-19 21:40 7.7 12.6 1.6 156.5 - - - - - - 80.4 - - 9
19-02-19 21:30 7.9 12.6 1.2 146.6 - - - - - - 81.5 - - 7
19-02-19 21:20 8.3 12.6 1.1 160.4 - - - - - - 81.0 - - 8
19-02-19 21:10 8.5 12.7 1.1 174.5 - - - - - - 80.7 - - 10
19-02-19 21:00 8.3 12.6 1.4 169.9 - - - - - - 80.6 - - 8
19-02-19 20:50 8.3 12.7 1.4 167.8 - - - - - - 80.1 - - 10
19-02-19 20:40 8.5 12.7 1.4 162.8 - - - - - - 79.0 - - 8
19-02-19 20:30 8.8 12.7 1.1 168.6 - - - - - - 79.3 - - 10
19-02-19 20:20 9.0 12.7 1.4 167.4 - - - - - - 78.7 - - 9
19-02-19 20:10 9.4 12.7 1.7 158.7 - - - - - - 75.0 - - 10
19-02-19 20:00 10.0 12.7 1.5 172.9 - - - - - - 71.7 - - 16
19-02-19 19:50 10.6 12.8 1.2 133.7 - - - - - - 65.3 - - 15
19-02-19 19:40 10.9 12.8 0.1 235.7 - - - - - - 61.4 - - 12
19-02-19 19:30 10.9 12.8 0.3 41.9 - - - - - - 60.2 - - 15
19-02-19 19:20 10.9 12.8 0.2 343.4 - - - - - - 60.7 - - 12
19-02-19 19:10 11.1 12.8 0.3 268.4 - - - - - - 61.4 - - 13
19-02-19 19:00 11.2 12.9 0.7 312.0 - - - - - - 60.2 - - 13
19-02-19 18:50 11.3 12.9 0.8 332.8 - - - - - - 59.7 - - 21
19-02-19 18:40 11.3 12.9 1.3 333.7 - - - - - - 59.9 - - 21
19-02-19 18:30 11.4 13.0 1.7 335.1 - - - - - - 59.5 - - 19
19-02-19 18:20 11.5 13.0 1.1 340.1 - - - - - - 59.6 - - 20
19-02-19 18:10 11.6 13.0 0.9 5.1 - - - - - - 60.0 - - 23
19-02-19 18:00 11.6 13.0 1.2 20.9 - - - - - - 62.1 - - 22
19-02-19 17:50 11.7 13.0 1.2 355.3 - - - - - - 65.9 - - 18
19-02-19 17:40 11.8 13.0 0.9 36.0 - - - - - - 67.4 - - 18
19-02-19 17:30 11.7 13.0 1.5 312.5 - - - - - - 69.9 - - 17
19-02-19 17:20 11.6 13.0 1.4 336.9 - - - - - - 71.8 - - 18
19-02-19 17:10 11.7 13.0 1.7 340.6 - - - - - - 73.5 - - 17
19-02-19 17:00 11.8 13.0 1.2 10.4 - - - - - - 70.3 - - 18
19-02-19 16:50 11.6 13.0 1.2 29.7 - - - - - - 67.4 - - 17
19-02-19 16:40 11.5 13.0 1.1 25.1 - - - - - - 66.5 - - 17
19-02-19 16:30 11.6 13.0 0.8 64.2 - - - - - - 65.6 - - 16
19-02-19 16:20 11.8 13.0 0.7 86.7 - - - - - - 67.4 - - 17
19-02-19 16:10 11.4 13.0 0.8 39.1 - - - - - - 67.4 - - 17
19-02-19 16:00 11.5 13.2 1.1 24.5 - - - - - - 67.6 - - 17
19-02-19 15:50 11.5 12.9 1.0 24.4 - - - - - - 64.5 - - 17
19-02-19 15:40 11.5 13.0 1.3 356.2 - - - - - - 63.7 - - 16
19-02-19 15:30 11.5 13.0 0.8 49.3 - - - - - - 65.8 - - 18
19-02-19 15:20 11.3 12.9 1.1 21.5 - - - - - - 67.2 - - 31
19-02-19 15:10 11.3 - 1.2 17.0 - - - - - - 68.1 - - 14
19-02-19 15:00 11.2 12.9 1.4 21.9 - - - - - - 68.5 - - 14
19-02-19 14:50 11.2 -99999.0 1.7 0.0 - - - - - - 68.8 - - 13
19-02-19 14:40 11.3 12.8 1.1 51.5 - - - - - - 69.0 - - 9
19-02-19 14:30 11.2 12.9 0.8 47.5 - - - - - - 68.8 - - 8
19-02-19 14:20 11.2 12.8 0.9 24.5 - - - - - - 69.8 - - 6
19-02-19 14:10 11.0 12.8 1.4 26.5 - - - - - - 69.6 - - 2
19-02-19 14:00 11.1 12.8 1.0 57.7 - - - - - - 69.2 - - -5
19-02-19 13:50 10.9 12.8 1.1 46.2 - - - - - - 70.2 - - -14
19-02-19 13:40 10.7 12.8 1.2 27.2 - - - - - - 70.6 - - 16
19-02-19 13:30 10.7 12.8 1.0 23.5 - - - - - - 71.8 - - 16
19-02-19 13:20 10.7 12.7 1.2 345.0 - - - - - - 70.0 - - 17
19-02-19 13:10 10.5 12.7 1.4 340.9 - - - - - - 66.5 - - 16
19-02-19 13:00 10.6 12.8 1.2 344.5 - - - - - - 66.8 - - 19
19-02-19 12:50 10.6 12.7 1.0 338.9 - - - - - - 66.7 - - 16
19-02-19 12:40 10.5 12.7 0.9 347.2 - - - - - - 66.9 - - 16
19-02-19 12:30 10.4 12.7 1.0 354.7 - - - - - - 67.8 - - 17
19-02-19 12:20 10.3 12.6 1.2 15.3 - - - - - - 68.1 - - 19
19-02-19 12:10 10.3 12.6 1.0 13.5 - - - - - - 68.8 - - 16
19-02-19 12:00 10.5 12.5 0.5 1.6 - - - - - - 70.0 - - 17
19-02-19 11:50 10.1 12.5 0.7 336.8 - - - - - - 71.7 - - 17
19-02-19 11:40 9.9 12.4 0.6 331.1 - - - - - - 71.1 - - 17
19-02-19 11:30 9.7 12.4 0.4 350.6 - - - - - - 72.5 - - 16
19-02-19 11:20 9.4 12.4 0.3 1.8 - - - - - - 74.8 - - 17
19-02-19 11:10 9.1 12.3 0.9 4.3 - - - - - - 75.3 - - 13
19-02-19 11:00 9.1 12.3 1.0 19.2 - - - - - - 73.5 - - 11
19-02-19 10:50 9.6 12.3 0.2 29.9 - - - - - - 73.1 - - 11
19-02-19 10:40 9.2 12.2 0.4 89.3 - - - - - - 72.7 - - 17
19-02-19 10:30 8.7 12.2 0.9 123.6 - - - - - - 76.3 - - 12
19-02-19 10:20 8.3 12.2 1.4 140.5 - - - - - - 78.7 - - 12
19-02-19 10:10 8.3 12.2 1.2 125.3 - - - - - - 78.9 - - 11
19-02-19 10:00 7.9 12.2 0.7 85.8 - - - - - - 82.0 - - 12
19-02-19 09:50 7.3 12.2 0.4 55.6 - - - - - - 84.6 - - 7
19-02-19 09:40 6.8 12.2 0.8 42.5 - - - - - - 85.8 - - 0
19-02-19 09:30 6.5 12.3 1.4 81.1 - - - - - - 87.9 - - 6